TimeMST,TemperatureF,Dew PointF,Humidity,Sea Level PressureIn,VisibilityMPH,Wind Direction,Wind SpeedMPH,Gust SpeedMPH,PrecipitationIn,Events,Conditions,WindDirDegrees,DateUTC
12:53 AM,15.1,10.9,84,30.44,10.0,NNE,5.8,-,N/A,,Clear,30,2013-01-22 07:53:00
1:53 AM,15.1,10.0,80,30.44,10.0,ENE,6.9,-,N/A,,Clear,60,2013-01-22 08:53:00
2:53 AM,14.0,10.0,84,30.45,10.0,East,6.9,-,N/A,,Clear,80,2013-01-22 09:53:00
3:53 AM,15.1,10.9,84,30.45,10.0,ENE,4.6,-,N/A,,Clear,70,2013-01-22 10:53:00
5:53 AM,12.0,8.1,84,30.52,10.0,ENE,3.5,-,N/A,,Clear,60,2013-01-22 12:53:00
6:53 AM,12.9,9.0,84,30.51,10.0,ENE,6.9,-,N/A,,Clear,70,2013-01-22 13:53:00
7:53 AM,15.1,10.9,84,30.53,10.0,East,8.1,-,N/A,,Clear,90,2013-01-22 14:53:00
8:53 AM,18.0,12.0,78,30.55,10.0,East,8.1,-,N/A,,Clear,100,2013-01-22 15:53:00
9:53 AM,21.9,15.1,75,30.56,10.0,ESE,5.8,-,N/A,,Clear,110,2013-01-22 16:53:00
10:53 AM,28.0,16.0,61,30.53,10.0,East,5.8,-,N/A,,Clear,100,2013-01-22 17:53:00
11:53 AM,34.0,17.1,50,30.50,10.0,Calm,Calm,-,N/A,,Clear,0,2013-01-22 18:53:00
12:53 PM,39.0,18.0,43,30.46,10.0,WSW,4.6,-,N/A,,Clear,250,2013-01-22 19:53:00
1:53 PM,41.0,18.0,40,30.42,10.0,WSW,4.6,-,N/A,,Clear,240,2013-01-22 20:53:00
2:53 PM,43.0,18.0,37,30.40,10.0,West,3.5,-,N/A,,Clear,280,2013-01-22 21:53:00
3:53 PM,43.0,18.0,37,30.39,10.0,Variable,3.5,-,N/A,,Clear,0,2013-01-22 22:53:00
4:53 PM,42.1,17.1,37,30.41,10.0,Calm,Calm,-,N/A,,Clear,0,2013-01-22 23:53:00
5:53 PM,37.0,16.0,42,30.44,10.0,Calm,Calm,-,N/A,,Clear,0,2013-01-23 00:53:00
6:53 PM,30.0,17.1,59,30.48,10.0,Calm,Calm,-,N/A,,Clear,0,2013-01-23 01:53:00
7:53 PM,26.1,17.1,69,30.49,10.0,East,4.6,-,N/A,,Clear,80,2013-01-23 02:53:00
8:53 PM,23.0,16.0,74,30.51,10.0,Calm,Calm,-,N/A,,Clear,0,2013-01-23 03:53:00
9:53 PM,21.0,16.0,81,30.51,10.0,NNE,4.6,-,N/A,,Clear,30,2013-01-23 04:53:00
10:53 PM,19.9,15.1,81,30.51,10.0,NE,6.9,-,N/A,,Clear,40,2013-01-23 05:53:00
11:53 PM,18.0,12.9,81,30.50,10.0,NE,6.9,-,N/A,,Clear,50,2013-01-23 06:53:00